Other Public Products
Issued by NWS Grand Forks, ND

Home | Current Version | Previous Version | Text Only | Print | Product List | Glossary Off
Versions: 1 2 3 4 5 6 7 8 9 10 11 12 13 14 15 16 17 18 19 20 21 22 23 24 25 26 27 28 29 30 31 32 33 34 35 36 37 38 39 40 41 42 43 44 45 46 47 48 49 50

000
FPUS83 KFGF 231831
OPUFGF
PRAIRIE TO PINES WEATHER ROUNDUP
NATIONAL WEATHER SERVICE EASTERN NORTH DAKOTA/GRAND FORKS ND
100 PM CDT TUE SEP 23 2014

 **SATELLITE DATA USED TO AUGMENT SKY COVER AT AUTOMATED STATIONS**
 *****  WEATHER ACROSS EASTERN NORTH DAKOTA  *****

CITY           SKY/WX    TMP DP  RH WIND       PRES   REMARKS
GRAND FORKS    MOSUNNY   74  57  55 S15       30.01S
6HR MIN TEMP:  52; 6HR MAX TEMP:  74;

GRAND FORKS AF SUNNY     74  58  57 S16       30.01F
GRAND CITY NWS   N/A     75 N/A N/A S18         N/A
BUXTON           N/A     73  59  60 S9          N/A
DEVILS LAKE    SUNNY     73  55  53 S20G26    29.95S
6HR MIN TEMP:  55; 6HR MAX TEMP:  73;

FARGO          PTSUNNY   71  55  56 S9G20     30.05R
6HR MIN TEMP:  56; 6HR MAX TEMP:  73;

WAHPETON ARPT  PTCLDY    70  48  46 S20G28    30.08R
$$

 *****  WEATHER ACROSS CENTRAL AND WESTERN NORTH DAKOTA  *****

CITY           SKY/WX    TMP DP  RH WIND       PRES   REMARKS
JAMESTOWN      PTSUNNY   68  58  70 S21G28    29.99F
6HR MIN TEMP:  54; 6HR MAX TEMP:  68;

BISMARCK       MOSUNNY   70  58  65 SE16      29.93S
6HR MIN TEMP:  54; 6HR MAX TEMP:  72;

MINOT          SUNNY     75  57  53 S15       29.87S
6HR MIN TEMP:  50; 6HR MAX TEMP:  75;

MINOT AFB      SUNNY     74  59  58 S15       29.86F
6HR MIN TEMP:  48; 6HR MAX TEMP:  74;

GARRISON         N/A     73  59  61 S10       29.89S
6HR MIN TEMP:  54; 6HR MAX TEMP:  73;

WILLISTON      SUNNY     74  54  49 VRB3      29.86S
6HR MIN TEMP:  46; 6HR MAX TEMP:  74;

DICKINSON      SUNNY     73  58  59 SE9       29.87S
6HR MIN TEMP:  50; 6HR MAX TEMP:  73;

HETTINGER      SUNNY     74  56  53 S12       29.91S
6HR MIN TEMP:  52; 6HR MAX TEMP:  74;

$$

 *****  OTHER OBSERVATIONS NORTHEAST NORTH DAKOTA  *****

CITY           SKY/WX    TMP DP  RH WIND       PRES   REMARKS
WALHALLA         N/A     73  57  56 S15       29.96S
LANGDON        FAIR      75  55  50 S22G31    29.96S
CAVALIER       FAIR      72  55  56 S15G23    29.97F
GRAFTON        FAIR      73  55  53 S18       30.00S
CANDO          FAIR      73  57  56 S21       29.94F
FORT TOTTEN    NOT AVBL
ROLLA          FAIR      73  55  53 S20G30    29.93F
RUGBY          FAIR      75  57  53 S17G23    29.91S
 ***** THE ABOVE OBSERVATIONS ARE NON NWS ARE NOT QUALITY
        CONTROLLED AND MAY MIS-REPORT RAIN FOR SNOW...
$$

 *****  OTHER OBSERVATIONS SOUTHEAST NORTH DAKOTA *****

CITY           SKY/WX    TMP DP  RH WIND       PRES   REMARKS
COOPERSTOWN    NOT AVBL
VALLEY CITY    FAIR      72  59  64 S22G29    30.01S
OAKES            N/A     68  57  68 SE22G32   30.02S
GWINNER        PTCLDY    70  55  60 S25G31    30.06R
BUFFALO          N/A     71  52  50 S20         N/A
WYNDMERE         N/A     70  55  60 S12         N/A
 ***** THE ABOVE OBSERVATIONS ARE NON NWS ARE NOT QUALITY
       CONTROLLED AND MAY MIS-REPORT RAIN FOR SNOW...
$$

  *****  WEATHER ACROSS NORTHERN MINNESOTA  *****

CITY           SKY/WX    TMP DP  RH WIND       PRES   REMARKS
FLAG ISLAND    SUNNY     64  54  68 SE14      30.04F
WARROAD        SUNNY     75  59  57 S6G16     30.05S
ROSEAU         SUNNY     77  57  50 S14       30.03F
HALLOCK        SUNNY     75  55  50 S15G22    29.99S
THF RVR FALLS  SUNNY     75  55  50 S17G23    30.04S
6HR MIN TEMP:  50; 6HR MAX TEMP:  73;

HALSTAD          N/A     76  54  45 S16         N/A
FOSSTON        SUNNY     75  52  43 S16G24    30.07S
BAUDETTE       SUNNY     74  52  46 S15G23    30.07F
6HR MIN TEMP:  46; 6HR MAX TEMP:  74;

WASKISH        SUNNY     75  55  50 S3G18     30.09F
CROOKSTON      SUNNY     75  57  53 S17       30.04S
$$
  *****  WEATHER ACROSS CENTRAL AND WEST MINNESOTA  *****

CITY           SKY/WX    TMP DP  RH WIND       PRES   REMARKS
BEMIDJI        SUNNY     74  52  45 S14G20    30.10F
PARK RAPIDS    MOSUNNY   73  51  46 S14G23    30.12S
6HR MIN TEMP:  46; 6HR MAX TEMP:  73;

WADENA         PTSUNNY   72  54  53 S16       30.12S
DETROIT LAKES  MOSUNNY   70  54  56 S17       30.10F
MOORHEAD       PTSUNNY   75  55  50 S10G23    30.06F
FERGUS FALLS   MOSUNNY   72  48  43 S16G26    30.10S
ELBOW LAKE     FAIR      68  53  58 S17G23    30.11S
6HR MIN TEMP:  51; 6HR MAX TEMP:  70;

MORRIS MN      MOSUNNY   66  54  63 S14G22    30.12S
STAPLES        PTSUNNY   72  52  49 S8G23     30.14S
WHEATON        PTSUNNY   64  48  55 S17G26    30.11S
$$
  *****  WEATHER ELSEWHERE ACROSS MINNESOTA  *****

CITY           SKY/WX    TMP DP  RH WIND       PRES   REMARKS
DULUTH         SUNNY     71  52  50 S17G23    30.20S
6HR MIN TEMP:  51; 6HR MAX TEMP:  71;

INTRNTL FALLS  SUNNY     72  49  44 S12G23    30.12S
6HR MIN TEMP:  41; 6HR MAX TEMP:  72;

ELY            SUNNY     72  48  43 SW10G16   30.17F
CLOQUET        SUNNY     70  48  46 S15       30.20S
BRAINERD       MOSUNNY   70  51  51 S14G22    30.16F
6HR MIN TEMP:  42; 6HR MAX TEMP:  71;

HIBBING        SUNNY     72  50  45 S12G17    30.17F
6HR MIN TEMP:  38; 6HR MAX TEMP:  72;

ALEXANDRIA     MOSUNNY   68  53  58 S15       30.15S
6HR MIN TEMP:  50; 6HR MAX TEMP:  70;

SAINT CLOUD    MOSUNNY   74  53  48 S15       30.17F
6HR MIN TEMP:  47; 6HR MAX TEMP:  74;

MINNEAPOLIS    PTSUNNY   72  49  44 S15       30.21F
6HR MIN TEMP:  51; 6HR MAX TEMP:  72;

$$

  *****  WEATHER ACROSS SOUTH DAKOTA  *****

CITY           SKY/WX    TMP DP  RH WIND       PRES   REMARKS
SIOUX FALLS    CLOUDY    59  56  89 SE9       30.11F
6HR MIN TEMP:  57; 6HR MAX TEMP:  59; 6HR PCP:  0.10;

BROOKINGS      NOT AVBL
WATERTOWN      LGT RAIN  57  53  86 S17       30.09F
6HR MIN TEMP:  55; 6HR MAX TEMP:  61; 6HR PCP: TRACE;

HURON          LGT RAIN  57  55  93 SE15G23   30.02F
6HR MIN TEMP:  56; 6HR MAX TEMP:  60; 6HR PCP:  0.47;

SISSETON         N/A     68  50  52 S20G29    30.06F
ABERDEEN       CLOUDY    58  55  90 S23G32    30.03S
6HR MIN TEMP:  58; 6HR MAX TEMP:  61; 6HR PCP:  0.06;

MITCHELL       CLOUDY    58  56  93 SE17      30.04F
PIERRE         CLOUDY    64  56  75 SE17      29.91F
6HR MIN TEMP:  58; 6HR MAX TEMP:  65;

MOBRIDGE       CLOUDY    64  57  78 SE15      29.92S
RAPID CITY     MOSUNNY   75  56  51 VRB5      29.94F
6HR MIN TEMP:  57; 6HR MAX TEMP:  75;

$$

  *****  SOME WEATHER IN NEARBY STATES *****

CITY           SKY/WX    TMP DP  RH WIND       PRES   REMARKS
GLASGOW MT     SUNNY     72  53  51 SW5       29.87S
6HR MIN TEMP:  47; 6HR MAX TEMP:  72;

GREAT FALLS MT MOSUNNY   75  46  35 SW10      30.00F
6HR MIN TEMP:  58; 6HR MAX TEMP:  76;

CHEYENNE WY    PTSUNNY   70  42  36 NW14G21   30.17S
6HR MIN TEMP:  53; 6HR MAX TEMP:  72;

SCOTTSBLUFF NE SUNNY     77  51  40 W12       30.02F
6HR MIN TEMP:  49; 6HR MAX TEMP:  77;

OMAHA NE       CLOUDY    64  57  78 SE7       30.17F
6HR MIN TEMP:  60; 6HR MAX TEMP:  64; 6HR PCP:  0.05;

DES MOINES IA  CLOUDY    69  51  52 S12       30.25S
6HR MIN TEMP:  54; 6HR MAX TEMP:  71;

DAVENPORT IA   SUNNY     71  44  37 SE10      30.31F
6HR MIN TEMP:  44; 6HR MAX TEMP:  72;

CHICAGO IL     MOSUNNY   67  47  48 SW5       30.34S
6HR MIN TEMP:  52; 6HR MAX TEMP:  67;

EAU CLAIRE WI  SUNNY     72  50  45 SW10      30.25F
6HR MIN TEMP:  42; 6HR MAX TEMP:  72;

LA CROSSE WI   MOSUNNY   73  50  44 S9        30.27F
6HR MIN TEMP:  50; 6HR MAX TEMP:  74;

$$

  *****  SOME NATIONAL WEATHER *****

CITY           SKY/WX    TMP DP  RH WIND       PRES   REMARKS
LA GUARDIA NY  MOSUNNY   68  41  37 VRB6      30.31F



USA.gov is the U.S. government's official web portal to all federal, state and local government web resources and services.